AAL123 KDFW-PHOG

Flight info

Callsign AAL123
Flight time N/A
Altitude 38000
Route HUDAD2 HUDAD PNH DVC IBSKI MLF RPARK MOD BRINY KO42C BAART R464 BITTA LNDHY1
Aircraft B772/H-SDE2E3FGHIJ5LORVWXY/LB1D1

Departure

Time 2026-05-06 13:20
Airport Dallas Fort Worth International Airport (KDFW)

Arrival

Time N/A
Airport Kahului International Airport (PHOG)
Time Latitude Longitude Altitude Speed Heading
2026-05-06 12:44 32.90385 -97.03512 620 ft 0 kts 309°
2026-05-06 13:06 32.90377 -97.03500 620 ft 4 kts 308°
2026-05-06 13:07 32.90362 -97.03474 633 ft 4 kts 295°
2026-05-06 13:07 32.90355 -97.03444 620 ft 4 kts 260°
2026-05-06 13:07 32.90363 -97.03418 633 ft 4 kts 229°
2026-05-06 13:07 32.90384 -97.03402 626 ft 4 kts 190°
2026-05-06 13:08 32.90408 -97.03399 620 ft 1 kts 180°
2026-05-06 13:08 32.90409 -97.03399 620 ft 0 kts 180°
2026-05-06 13:12 32.90405 -97.03399 620 ft 2 kts 178°
2026-05-06 13:12 32.90376 -97.03377 622 ft 8 kts 135°
2026-05-06 13:12 32.90321 -97.03317 622 ft 14 kts 159°
2026-05-06 13:12 32.90207 -97.03314 626 ft 19 kts 180°
2026-05-06 13:13 32.90072 -97.03314 620 ft 19 kts 180°
2026-05-06 13:13 32.89937 -97.03316 624 ft 19 kts 180°
2026-05-06 13:13 32.89802 -97.03316 620 ft 19 kts 180°
2026-05-06 13:13 32.89753 -97.03249 620 ft 12 kts 96°
2026-05-06 13:14 32.89697 -97.03193 620 ft 12 kts 178°
2026-05-06 13:14 32.89616 -97.03195 627 ft 12 kts 180°
2026-05-06 13:14 32.89536 -97.03196 620 ft 12 kts 180°
2026-05-06 13:14 32.89455 -97.03196 626 ft 12 kts 180°
2026-05-06 13:15 32.89374 -97.03196 620 ft 12 kts 180°
2026-05-06 13:15 32.89291 -97.03197 620 ft 12 kts 180°
2026-05-06 13:15 32.89200 -97.03198 623 ft 14 kts 180°
2026-05-06 13:15 32.89101 -97.03198 620 ft 15 kts 180°
2026-05-06 13:16 32.88995 -97.03198 620 ft 16 kts 180°
2026-05-06 13:16 32.88885 -97.03199 622 ft 16 kts 180°
2026-05-06 13:16 32.88776 -97.03200 624 ft 16 kts 180°
2026-05-06 13:16 32.88666 -97.03201 620 ft 16 kts 180°
2026-05-06 13:17 32.88557 -97.03201 624 ft 16 kts 180°
2026-05-06 13:17 32.88449 -97.03201 625 ft 16 kts 181°
2026-05-06 13:17 32.88340 -97.03203 627 ft 16 kts 181°
2026-05-06 13:17 32.88230 -97.03203 620 ft 16 kts 179°
2026-05-06 13:18 32.88121 -97.03202 627 ft 16 kts 181°
2026-05-06 13:18 32.88012 -97.03204 627 ft 16 kts 181°
2026-05-06 13:18 32.87911 -97.03172 624 ft 16 kts 127°
2026-05-06 13:18 32.87899 -97.03048 625 ft 14 kts 88°
2026-05-06 13:19 32.87929 -97.03007 627 ft 5 kts 17°
2026-05-06 13:19 32.88046 -97.03008 633 ft 44 kts
2026-05-06 13:19 32.88565 -97.03005 620 ft 106 kts
2026-05-06 13:19 32.89496 -97.03001 623 ft 160 kts
2026-05-06 13:20 32.90648 -97.02993 1090 ft 167 kts
2026-05-06 13:20 32.91823 -97.03015 1748 ft 170 kts 356°
2026-05-06 13:20 32.93008 -97.03096 2474 ft 173 kts 358°
2026-05-06 13:20 32.94291 -97.03108 2830 ft 198 kts 359°
2026-05-06 13:21 32.95739 -97.03129 2977 ft 217 kts 358°
2026-05-06 13:21 32.97292 -97.03336 3120 ft 232 kts 350°
2026-05-06 13:21 32.98922 -97.03681 3545 ft 243 kts 349°
2026-05-06 13:21 33.00577 -97.04055 4026 ft 249 kts 349°
2026-05-06 13:22 33.02302 -97.04395 4509 ft 255 kts 349°
2026-05-06 13:22 33.04068 -97.04735 5047 ft 258 kts 349°
2026-05-06 13:22 33.05805 -97.05242 5426 ft 259 kts 330°
2026-05-06 13:22 33.07104 -97.06710 5762 ft 263 kts 295°
2026-05-06 13:23 33.07658 -97.08779 6175 ft 264 kts 279°
2026-05-06 13:23 33.08003 -97.10956 6625 ft 269 kts 279°
2026-05-06 13:23 33.08364 -97.13145 7246 ft 267 kts 277°
2026-05-06 13:23 33.08368 -97.15317 7593 ft 267 kts 259°
2026-05-06 13:24 33.07988 -97.17522 8021 ft 273 kts 257°
2026-05-06 13:24 33.07613 -97.19742 8626 ft 274 kts 258°
2026-05-06 13:24 33.07242 -97.21975 9179 ft 275 kts 258°
2026-05-06 13:24 33.06875 -97.24221 9732 ft 276 kts 258°
2026-05-06 13:25 33.06507 -97.26471 10299 ft 278 kts 258°
2026-05-06 13:25 33.06131 -97.28795 10520 ft 295 kts 258°
2026-05-06 13:25 33.05733 -97.31278 10689 ft 315 kts 258°
2026-05-06 13:25 33.05308 -97.33920 10860 ft 335 kts 258°
2026-05-06 13:26 33.04873 -97.36661 11250 ft 347 kts 258°
2026-05-06 13:26 33.04420 -97.39504 11941 ft 351 kts 258°
2026-05-06 13:26 33.03965 -97.42358 12807 ft 351 kts 258°
2026-05-06 13:26 33.03509 -97.45217 13767 ft 350 kts 258°
2026-05-06 13:27 33.03053 -97.48070 14671 ft 351 kts 258°
2026-05-06 13:27 33.02598 -97.50924 15583 ft 351 kts 257°
2026-05-06 13:27 33.02141 -97.53782 16476 ft 351 kts 257°
2026-05-06 13:27 33.01681 -97.56647 17345 ft 352 kts 257°
2026-05-06 13:28 33.01226 -97.59476 18173 ft 353 kts 257°
2026-05-06 13:28 33.00763 -97.62353 19034 ft 354 kts 257°
2026-05-06 13:28 33.00295 -97.65244 19793 ft 357 kts 257°
2026-05-06 13:28 32.99821 -97.68170 20457 ft 362 kts 257°
2026-05-06 13:29 32.99414 -97.71127 21031 ft 365 kts 264°
2026-05-06 13:29 32.99584 -97.74197 21513 ft 378 kts 275°
2026-05-06 13:29 33.00333 -97.77235 22165 ft 388 kts 285°
2026-05-06 13:29 33.01431 -97.80195 22776 ft 392 kts 287°
2026-05-06 13:30 33.02577 -97.83162 23331 ft 396 kts 288°
2026-05-06 13:30 33.03722 -97.86112 23884 ft 399 kts 288°
2026-05-06 13:30 33.04879 -97.89123 24402 ft 401 kts 287°
2026-05-06 13:30 33.06035 -97.92159 24889 ft 404 kts 287°
2026-05-06 13:31 33.07191 -97.95221 25397 ft 405 kts 287°
2026-05-06 13:31 33.08345 -97.98296 25888 ft 407 kts 287°
2026-05-06 13:31 33.09500 -98.01386 26357 ft 409 kts 286°
2026-05-06 13:31 33.10657 -98.04489 26797 ft 411 kts 286°
2026-05-06 13:32 33.11802 -98.07568 27202 ft 412 kts 286°
2026-05-06 13:32 33.12966 -98.10700 27607 ft 414 kts 285°
2026-05-06 13:32 33.14137 -98.13844 27988 ft 415 kts 285°
2026-05-06 13:32 33.15309 -98.17000 28344 ft 417 kts 285°
2026-05-06 13:33 33.16485 -98.20170 28657 ft 419 kts 285°
2026-05-06 13:33 33.17667 -98.23359 28924 ft 421 kts 285°
2026-05-06 13:33 33.18853 -98.26559 29199 ft 423 kts 285°
2026-05-06 13:33 33.20044 -98.29768 29489 ft 423 kts 285°
2026-05-06 13:34 33.21222 -98.32941 29777 ft 424 kts 285°
2026-05-06 13:34 33.22415 -98.36158 30091 ft 423 kts 285°
2026-05-06 13:34 33.23604 -98.39359 30480 ft 420 kts 285°
2026-05-06 13:34 33.24783 -98.42545 30799 ft 420 kts 284°
2026-05-06 13:35 33.25959 -98.45731 31095 ft 419 kts 284°
2026-05-06 13:35 33.27134 -98.48917 31360 ft 419 kts 284°
2026-05-06 13:35 33.28305 -98.52098 31656 ft 418 kts 284°
2026-05-06 13:35 33.29473 -98.55271 31962 ft 416 kts 284°
2026-05-06 13:36 33.30621 -98.58392 32253 ft 415 kts 284°
2026-05-06 13:36 33.31781 -98.61546 32545 ft 414 kts 284°
2026-05-06 13:36 33.32937 -98.64689 32855 ft 412 kts 284°
2026-05-06 13:36 33.34087 -98.67824 33145 ft 411 kts 283°
2026-05-06 13:37 33.35233 -98.70959 33367 ft 411 kts 283°
2026-05-06 13:37 33.36379 -98.74092 33616 ft 411 kts 283°
2026-05-06 13:37 33.37523 -98.77219 33897 ft 409 kts 283°
2026-05-06 13:37 33.38661 -98.80333 34149 ft 408 kts 283°
2026-05-06 13:38 33.39797 -98.83444 34380 ft 408 kts 283°
2026-05-06 13:38 33.40916 -98.86513 34600 ft 408 kts 283°
2026-05-06 13:38 33.42047 -98.89622 34862 ft 406 kts 283°
2026-05-06 13:38 33.43175 -98.92717 35110 ft 406 kts 283°
2026-05-06 13:39 33.44302 -98.95811 35331 ft 405 kts 283°
2026-05-06 13:39 33.45425 -98.98903 35547 ft 405 kts 283°
2026-05-06 13:39 33.46549 -99.01997 35789 ft 404 kts 283°
2026-05-06 13:39 33.47666 -99.05073 36051 ft 402 kts 283°
2026-05-06 13:40 33.48780 -99.08151 36229 ft 402 kts 283°
2026-05-06 13:40 33.49892 -99.11228 36380 ft 403 kts 283°
2026-05-06 13:40 33.50989 -99.14264 36553 ft 403 kts 283°
2026-05-06 13:40 33.52099 -99.17337 36809 ft 400 kts 283°
2026-05-06 13:41 33.53203 -99.20387 37058 ft 398 kts 283°
2026-05-06 13:41 33.54298 -99.23425 37299 ft 395 kts 283°
2026-05-06 13:41 33.55386 -99.26445 37507 ft 394 kts 283°
2026-05-06 13:41 33.56468 -99.29451 37694 ft 392 kts 283°
2026-05-06 13:42 33.57545 -99.32447 37934 ft 390 kts 283°
2026-05-06 13:42 33.59678 -99.38385 38037 ft 390 kts 283°
2026-05-06 13:43 33.62078 -99.44219 38066 ft 401 kts 294°
2026-05-06 13:43 33.65830 -99.49290 38073 ft 406 kts 298°
2026-05-06 13:44 33.69597 -99.54334 38079 ft 406 kts 298°
2026-05-06 13:44 33.73341 -99.59407 38090 ft 406 kts 298°
2026-05-06 13:45 33.77051 -99.64455 38082 ft 406 kts 298°
2026-05-06 13:45 33.82646 -99.72085 38081 ft 405 kts 298°
2026-05-06 13:46 33.86365 -99.77168 38092 ft 405 kts 297°
2026-05-06 13:46 33.90078 -99.82250 38081 ft 404 kts 297°
2026-05-06 13:47 33.93760 -99.87296 38096 ft 404 kts 297°
2026-05-06 13:47 33.97466 -99.92383 38086 ft 403 kts 297°
2026-05-06 13:48 34.01165 -99.97467 38087 ft 403 kts 297°
2026-05-06 13:48 34.04859 -100.02551 38082 ft 403 kts 297°
2026-05-06 13:49 34.08530 -100.07611 38089 ft 403 kts 297°
2026-05-06 13:49 34.12217 -100.12702 38089 ft 403 kts 297°
2026-05-06 13:50 34.15902 -100.17795 38097 ft 403 kts 297°
2026-05-06 13:50 34.19583 -100.22892 38096 ft 403 kts 297°
2026-05-06 13:51 34.23237 -100.27956 38096 ft 402 kts 297°
2026-05-06 13:51 34.26915 -100.33060 38091 ft 403 kts 297°
2026-05-06 13:52 34.30589 -100.38171 38090 ft 403 kts 297°
2026-05-06 13:52 34.34264 -100.43288 38095 ft 403 kts 297°
2026-05-06 13:53 34.37938 -100.48411 38087 ft 403 kts 297°
2026-05-06 13:53 34.41585 -100.53506 38094 ft 403 kts 297°
2026-05-06 13:54 34.45262 -100.58651 38092 ft 404 kts 296°
2026-05-06 13:54 34.48941 -100.63800 38090 ft 404 kts 296°
2026-05-06 13:55 34.52621 -100.68958 38087 ft 404 kts 296°
2026-05-06 13:55 34.56272 -100.74084 38096 ft 404 kts 296°
2026-05-06 13:56 34.59944 -100.79255 38095 ft 405 kts 296°
2026-05-06 13:56 34.63571 -100.84365 38093 ft 405 kts 296°
2026-05-06 13:57 34.67124 -100.89376 38094 ft 406 kts 296°
2026-05-06 13:57 34.70778 -100.94542 38093 ft 406 kts 296°
2026-05-06 13:58 34.74458 -100.99748 38089 ft 406 kts 296°
2026-05-06 13:58 34.78137 -101.04956 38088 ft 406 kts 296°
2026-05-06 13:59 34.81811 -101.10171 38097 ft 406 kts 296°
2026-05-06 13:59 34.85465 -101.15363 38089 ft 406 kts 296°
2026-05-06 14:00 34.89136 -101.20591 38087 ft 406 kts 296°
2026-05-06 14:00 34.92801 -101.25817 38095 ft 405 kts 296°
2026-05-06 14:01 34.96461 -101.31037 38095 ft 405 kts 295°
2026-05-06 14:01 35.00086 -101.36224 38098 ft 405 kts 295°
2026-05-06 14:02 35.03741 -101.41463 38104 ft 405 kts 295°
2026-05-06 14:02 35.07396 -101.46707 38101 ft 406 kts 295°
2026-05-06 14:03 35.11058 -101.51968 38103 ft 407 kts 295°
2026-05-06 14:03 35.14718 -101.57231 38096 ft 406 kts 295°
2026-05-06 14:04 35.18352 -101.62465 38106 ft 406 kts 295°
2026-05-06 14:04 35.21956 -101.67760 38105 ft 399 kts 291°
2026-05-06 14:05 35.24892 -101.73366 38100 ft 385 kts 284°
2026-05-06 14:05 35.27228 -101.79189 38104 ft 381 kts 283°
2026-05-06 14:06 35.29514 -101.84992 38098 ft 382 kts 283°
2026-05-06 14:06 35.31827 -101.90848 38103 ft 382 kts 283°
2026-05-06 14:07 35.34143 -101.96716 38103 ft 383 kts 283°
2026-05-06 14:07 35.36467 -102.02600 38106 ft 384 kts 283°
2026-05-06 14:08 35.38793 -102.08494 38103 ft 385 kts 282°
2026-05-06 14:08 35.41105 -102.14360 38103 ft 385 kts 282°
2026-05-06 14:09 35.43430 -102.20286 38099 ft 386 kts 282°
2026-05-06 14:09 35.45755 -102.26216 38099 ft 386 kts 282°
2026-05-06 14:10 35.48079 -102.32148 38100 ft 386 kts 282°
2026-05-06 14:10 35.50396 -102.38083 38095 ft 386 kts 282°
2026-05-06 14:11 35.52695 -102.43978 38093 ft 385 kts 282°
2026-05-06 14:11 35.55002 -102.49902 38102 ft 384 kts 282°
2026-05-06 14:12 35.57303 -102.55821 38101 ft 384 kts 282°
2026-05-06 14:12 35.59602 -102.61748 38097 ft 384 kts 282°
2026-05-06 14:13 35.61878 -102.67636 38093 ft 384 kts 282°
2026-05-06 14:13 35.64175 -102.73579 38095 ft 385 kts 282°
2026-05-06 14:14 35.66469 -102.79526 38090 ft 385 kts 282°
2026-05-06 14:14 35.68763 -102.85482 38095 ft 386 kts 282°
2026-05-06 14:15 35.71044 -102.91417 38095 ft 386 kts 282°
2026-05-06 14:15 35.73338 -102.97397 38091 ft 387 kts 282°
2026-05-06 14:16 35.75628 -103.03379 38093 ft 386 kts 282°
2026-05-06 14:16 35.77918 -103.09374 38090 ft 387 kts 282°
2026-05-06 14:17 35.80191 -103.15335 38092 ft 387 kts 282°
2026-05-06 14:17 35.82482 -103.21352 38092 ft 388 kts 282°
2026-05-06 14:18 35.84774 -103.27381 38087 ft 389 kts 282°
2026-05-06 14:18 35.87065 -103.33418 38079 ft 389 kts 282°
2026-05-06 14:19 35.89339 -103.39424 38090 ft 389 kts 282°
2026-05-06 14:19 35.91629 -103.45488 38082 ft 390 kts 282°
2026-05-06 14:20 35.93921 -103.51562 38087 ft 391 kts 282°
2026-05-06 14:20 35.96211 -103.57641 38084 ft 391 kts 282°
2026-05-06 14:21 35.98497 -103.63734 38078 ft 391 kts 281°
2026-05-06 14:21 36.00769 -103.69798 38075 ft 392 kts 282°
2026-05-06 14:22 36.03057 -103.75915 38080 ft 393 kts 282°
2026-05-06 14:22 36.05349 -103.82035 38080 ft 392 kts 281°
2026-05-06 14:23 36.07631 -103.88159 38071 ft 392 kts 281°
2026-05-06 14:23 36.09894 -103.94245 38077 ft 392 kts 281°
2026-05-06 14:24 36.12172 -104.00379 38064 ft 392 kts 281°
2026-05-06 14:24 36.14445 -104.06512 38066 ft 392 kts 281°
2026-05-06 14:25 36.16716 -104.12653 38066 ft 392 kts 281°
2026-05-06 14:25 36.18970 -104.18749 38063 ft 392 kts 281°
2026-05-06 14:26 36.21231 -104.24888 38070 ft 392 kts 281°
2026-05-06 14:26 36.23492 -104.31043 38063 ft 393 kts 282°
2026-05-06 14:27 36.25755 -104.37212 38064 ft 394 kts 282°
2026-05-06 14:27 36.28023 -104.43395 38057 ft 395 kts 282°
2026-05-06 14:28 36.30274 -104.49558 38056 ft 396 kts 282°
2026-05-06 14:28 36.32543 -104.55783 38060 ft 397 kts 282°
2026-05-06 14:29 36.34821 -104.62035 38066 ft 398 kts 282°
2026-05-06 14:29 36.37099 -104.68304 38065 ft 400 kts 282°
2026-05-06 14:30 36.39370 -104.74570 38064 ft 401 kts 282°
2026-05-06 14:30 36.41660 -104.80900 38064 ft 403 kts 283°
2026-05-06 14:31 36.43957 -104.87260 38075 ft 404 kts 283°
2026-05-06 14:31 36.46257 -104.93645 38079 ft 406 kts 283°
2026-05-06 14:32 36.48566 -105.00060 38083 ft 407 kts 283°
2026-05-06 14:32 36.50865 -105.06464 38100 ft 410 kts 283°
2026-05-06 14:33 36.53184 -105.12941 38091 ft 410 kts 283°
2026-05-06 14:33 36.55506 -105.19437 38091 ft 412 kts 283°
2026-05-06 14:34 36.57837 -105.25974 38086 ft 415 kts 283°
2026-05-06 14:34 36.60155 -105.32496 38094 ft 415 kts 283°
2026-05-06 14:35 36.62492 -105.39062 38080 ft 415 kts 283°
2026-05-06 14:35 36.64819 -105.45621 38084 ft 413 kts 283°
2026-05-06 14:36 36.67120 -105.52132 38095 ft 414 kts 283°
2026-05-06 14:36 36.69431 -105.58689 38093 ft 413 kts 283°
2026-05-06 14:37 36.71741 -105.65243 38084 ft 413 kts 283°
2026-05-06 14:37 36.74044 -105.71798 38085 ft 413 kts 283°
2026-05-06 14:38 36.76345 -105.78369 38072 ft 413 kts 283°
2026-05-06 14:38 36.78628 -105.84890 38077 ft 414 kts 283°
2026-05-06 14:39 36.80927 -105.91482 38080 ft 414 kts 283°
2026-05-06 14:39 36.83227 -105.98086 38071 ft 415 kts 283°
2026-05-06 14:40 36.85528 -106.04708 38066 ft 417 kts 284°
2026-05-06 14:40 36.87820 -106.11325 38055 ft 419 kts 284°
2026-05-06 14:41 36.90141 -106.18033 38056 ft 422 kts 285°
2026-05-06 14:41 36.92473 -106.24786 38048 ft 424 kts 285°
2026-05-06 14:42 36.94810 -106.31567 38068 ft 426 kts 285°
2026-05-06 14:42 36.97136 -106.38340 38062 ft 428 kts 285°
2026-05-06 14:43 36.99485 -106.45189 38066 ft 429 kts 285°
2026-05-06 14:43 37.01837 -106.52057 38079 ft 430 kts 285°
2026-05-06 14:44 37.04188 -106.58953 38078 ft 431 kts 285°
2026-05-06 14:45 37.07694 -106.69250 38086 ft 431 kts 285°
2026-05-06 14:45 37.10038 -106.76154 38094 ft 431 kts 285°
2026-05-06 14:46 37.11983 -106.81902 38077 ft 431 kts 286°
2026-05-06 14:46 37.14325 -106.88826 38079 ft 431 kts 286°
2026-05-06 14:47 37.17038 -106.96875 38089 ft 432 kts 286°
2026-05-06 14:47 37.19370 -107.03814 38088 ft 432 kts 286°
2026-05-06 14:48 37.21305 -107.09588 38077 ft 432 kts 286°
2026-05-06 14:48 37.23632 -107.16539 38082 ft 432 kts 286°
2026-05-06 14:49 37.26335 -107.24636 38082 ft 433 kts 287°
2026-05-06 14:49 37.28285 -107.30490 38087 ft 434 kts 287°
2026-05-06 14:50 37.30597 -107.37445 38072 ft 435 kts 287°
2026-05-06 14:50 37.32925 -107.44467 38090 ft 436 kts 287°
2026-05-06 14:51 37.35257 -107.51524 38072 ft 438 kts 287°
2026-05-06 14:51 37.37593 -107.58601 38067 ft 439 kts 287°
2026-05-06 14:52 37.39913 -107.65645 38066 ft 439 kts 288°
2026-05-06 14:52 37.42244 -107.72742 38068 ft 439 kts 288°
2026-05-06 14:53 37.44574 -107.79851 38074 ft 440 kts 288°
2026-05-06 14:53 37.46907 -107.86986 38067 ft 441 kts 288°
2026-05-06 14:54 37.49222 -107.94089 38058 ft 441 kts 288°
2026-05-06 14:54 37.51545 -108.01244 38070 ft 442 kts 288°
2026-05-06 14:55 37.53866 -108.08410 38062 ft 442 kts 289°
2026-05-06 14:55 37.56195 -108.15595 38082 ft 444 kts 289°
2026-05-06 14:56 37.58507 -108.22763 38060 ft 445 kts 289°
2026-05-06 14:56 37.60834 -108.29992 38067 ft 445 kts 289°
2026-05-06 14:57 37.63156 -108.37221 38064 ft 444 kts 289°
2026-05-06 14:57 37.65456 -108.44403 38063 ft 444 kts 288°
2026-05-06 14:58 37.67782 -108.51679 38061 ft 444 kts 289°
2026-05-06 14:58 37.70068 -108.58852 38062 ft 443 kts 289°
2026-05-06 14:59 37.72364 -108.66075 38067 ft 443 kts 289°
2026-05-06 14:59 37.74654 -108.73304 38069 ft 443 kts 289°
2026-05-06 15:00 37.76939 -108.80529 38075 ft 443 kts 289°
2026-05-06 15:00 37.79203 -108.87703 38074 ft 443 kts 289°
2026-05-06 15:01 37.81297 -108.95015 38076 ft 441 kts 282°
2026-05-06 15:01 37.82634 -109.02509 38083 ft 440 kts 281°
2026-05-06 15:02 37.83967 -109.10061 38086 ft 440 kts 281°
2026-05-06 15:02 37.85306 -109.17563 38094 ft 440 kts 281°
2026-05-06 15:03 37.86656 -109.25124 38102 ft 441 kts 281°
2026-05-06 15:03 37.88008 -109.32707 38101 ft 442 kts 282°
2026-05-06 15:04 37.89353 -109.40293 38108 ft 442 kts 282°
2026-05-06 15:04 37.90695 -109.47888 38111 ft 442 kts 282°
2026-05-06 15:05 37.92024 -109.55438 38098 ft 442 kts 282°
2026-05-06 15:05 37.93357 -109.63059 38099 ft 443 kts 282°
2026-05-06 15:06 37.94688 -109.70680 38104 ft 443 kts 282°
2026-05-06 15:06 37.96009 -109.78310 38099 ft 444 kts 282°
2026-05-06 15:07 37.97327 -109.85911 38097 ft 445 kts 282°
2026-05-06 15:07 37.98648 -109.93568 38080 ft 445 kts 283°
2026-05-06 15:08 37.99953 -110.01230 38083 ft 444 kts 281°
2026-05-06 15:08 38.01031 -110.08955 38060 ft 445 kts 279°
2026-05-06 15:09 38.02007 -110.16718 38056 ft 446 kts 279°
2026-05-06 15:09 38.02988 -110.24417 38056 ft 445 kts 280°
2026-05-06 15:10 38.03992 -110.32152 38052 ft 444 kts 280°
2026-05-06 15:10 38.05003 -110.39885 38057 ft 444 kts 280°
2026-05-06 15:11 38.06007 -110.47623 38059 ft 445 kts 280°
2026-05-06 15:11 38.07007 -110.55376 38067 ft 445 kts 280°
2026-05-06 15:12 38.08000 -110.63094 38050 ft 448 kts 282°
2026-05-06 15:12 38.09006 -110.70944 38071 ft 453 kts 282°
2026-05-06 15:13 38.10019 -110.78895 38083 ft 459 kts 282°
2026-05-06 15:13 38.11030 -110.86879 38081 ft 463 kts 283°
2026-05-06 15:14 38.12048 -110.94991 38075 ft 466 kts 283°
2026-05-06 15:14 38.13062 -111.03123 38080 ft 467 kts 283°
2026-05-06 15:15 38.14076 -111.11274 38092 ft 467 kts 283°
2026-05-06 15:15 38.15079 -111.19436 38079 ft 467 kts 283°
2026-05-06 15:16 38.16071 -111.27528 38082 ft 466 kts 283°
2026-05-06 15:16 38.17067 -111.35665 38091 ft 466 kts 283°
2026-05-06 15:17 38.18055 -111.43816 38089 ft 467 kts 283°
2026-05-06 15:17 38.19034 -111.51973 38104 ft 466 kts 283°
2026-05-06 15:18 38.20014 -111.60122 38097 ft 466 kts 283°
2026-05-06 15:18 38.20978 -111.68220 38114 ft 467 kts 283°
2026-05-06 15:19 38.21946 -111.76386 38125 ft 467 kts 283°
2026-05-06 15:19 38.22908 -111.84558 38118 ft 468 kts 283°
2026-05-06 15:20 38.23859 -111.92681 38142 ft 468 kts 283°
2026-05-06 15:20 38.24813 -112.00895 38135 ft 469 kts 283°
2026-05-06 15:21 38.25764 -112.09115 38149 ft 470 kts 283°
2026-05-06 15:21 38.26707 -112.17336 38132 ft 470 kts 283°
2026-05-06 15:22 38.27644 -112.25559 38143 ft 469 kts 283°
2026-05-06 15:22 38.28566 -112.33728 38140 ft 470 kts 283°
2026-05-06 15:23 38.29496 -112.41969 38150 ft 471 kts 283°
2026-05-06 15:23 38.30423 -112.50229 38140 ft 471 kts 283°
2026-05-06 15:24 38.31334 -112.58481 38141 ft 471 kts 284°
2026-05-06 15:24 38.32245 -112.66686 38139 ft 471 kts 284°
2026-05-06 15:25 38.33148 -112.74941 38134 ft 470 kts 284°
2026-05-06 15:25 38.34046 -112.83187 38133 ft 470 kts 284°
2026-05-06 15:26 38.34939 -112.91420 38139 ft 470 kts 284°
2026-05-06 15:26 38.35816 -112.99624 38122 ft 471 kts 283°
2026-05-06 15:27 38.35983 -113.08040 38134 ft 478 kts 275°
2026-05-06 15:27 38.35782 -113.16521 38126 ft 479 kts 275°
2026-05-06 15:28 38.35587 -113.25013 38134 ft 480 kts 275°
2026-05-06 15:28 38.35414 -113.33463 38130 ft 481 kts 276°
2026-05-06 15:29 38.35244 -113.41984 38132 ft 482 kts 276°
2026-05-06 15:29 38.35070 -113.50526 38125 ft 483 kts 276°
2026-05-06 15:30 38.34892 -113.59075 38142 ft 483 kts 276°
2026-05-06 15:30 38.34705 -113.67578 38151 ft 483 kts 276°
2026-05-06 15:31 38.34508 -113.76142 38137 ft 484 kts 276°
2026-05-06 15:31 38.34306 -113.84719 38148 ft 485 kts 276°
2026-05-06 15:32 38.33993 -113.97546 38130 ft 485 kts 276°
2026-05-06 15:32 38.33778 -114.06104 38143 ft 484 kts 276°
2026-05-06 15:33 38.33554 -114.14687 38142 ft 484 kts 276°
2026-05-06 15:33 38.33324 -114.23261 38147 ft 484 kts 275°
2026-05-06 15:34 38.33091 -114.31834 38141 ft 484 kts 275°
2026-05-06 15:34 38.32850 -114.40350 38149 ft 485 kts 275°
2026-05-06 15:35 38.32601 -114.48925 38163 ft 485 kts 275°
2026-05-06 15:35 38.32346 -114.57492 38157 ft 485 kts 275°
2026-05-06 15:36 38.32088 -114.66081 38164 ft 485 kts 275°
2026-05-06 15:36 38.31823 -114.74599 38154 ft 484 kts 275°
2026-05-06 15:37 38.31550 -114.83172 38160 ft 484 kts 275°
2026-05-06 15:37 38.31270 -114.91738 38156 ft 485 kts 275°
2026-05-06 15:38 38.30983 -115.00313 38161 ft 485 kts 275°
2026-05-06 15:38 38.30694 -115.08841 38172 ft 485 kts 275°
2026-05-06 15:39 38.30397 -115.17429 38162 ft 486 kts 275°
2026-05-06 15:39 38.30090 -115.26023 38165 ft 486 kts 275°
2026-05-06 15:40 38.29780 -115.34608 38168 ft 485 kts 275°
2026-05-06 15:40 38.29464 -115.43129 38172 ft 485 kts 275°
2026-05-06 15:41 38.29142 -115.51703 38190 ft 485 kts 275°
2026-05-06 15:41 38.28813 -115.60284 38181 ft 486 kts 275°
2026-05-06 15:42 38.28476 -115.68869 38187 ft 485 kts 274°
2026-05-06 15:42 38.28136 -115.77393 38182 ft 485 kts 274°
2026-05-06 15:43 38.27787 -115.85967 38183 ft 485 kts 274°
2026-05-06 15:43 38.27435 -115.94550 38189 ft 486 kts 274°
2026-05-06 15:44 38.27074 -116.03143 38184 ft 486 kts 274°
2026-05-06 15:44 38.26709 -116.11668 38197 ft 486 kts 274°
2026-05-06 15:45 38.26337 -116.20252 38189 ft 486 kts 274°
2026-05-06 15:45 38.25955 -116.28841 38195 ft 486 kts 274°
2026-05-06 15:46 38.25569 -116.37428 38196 ft 486 kts 274°
2026-05-06 15:46 38.25179 -116.45969 38202 ft 487 kts 274°
2026-05-06 15:47 38.24779 -116.54576 38191 ft 487 kts 274°
2026-05-06 15:47 38.24371 -116.63175 38197 ft 487 kts 274°
2026-05-06 15:48 38.23957 -116.71766 38194 ft 486 kts 274°
2026-05-06 15:48 38.23539 -116.80350 38188 ft 486 kts 274°
2026-05-06 15:49 38.23121 -116.88867 38202 ft 486 kts 274°
2026-05-06 15:49 38.22693 -116.97448 38192 ft 486 kts 274°
2026-05-06 15:50 38.22256 -117.06035 38192 ft 487 kts 273°
2026-05-06 15:50 38.21813 -117.14617 38190 ft 486 kts 273°
2026-05-06 15:51 38.21368 -117.23142 38199 ft 486 kts 273°
2026-05-06 15:51 38.20910 -117.31731 38193 ft 487 kts 273°
2026-05-06 15:52 38.20449 -117.40326 38195 ft 487 kts 273°
2026-05-06 15:52 38.19980 -117.48928 38193 ft 488 kts 273°
2026-05-06 15:53 38.19508 -117.57478 38195 ft 488 kts 273°
2026-05-06 15:53 38.19026 -117.66097 38202 ft 489 kts 272°
2026-05-06 15:54 38.18536 -117.74727 38192 ft 490 kts 272°
2026-05-06 15:54 38.18040 -117.83373 38192 ft 490 kts 272°
2026-05-06 15:55 38.17537 -117.92013 38200 ft 490 kts 272°
2026-05-06 15:55 38.17029 -118.00600 38211 ft 490 kts 272°
2026-05-06 15:56 38.16513 -118.09243 38208 ft 491 kts 272°
2026-05-06 15:56 38.15990 -118.17891 38197 ft 491 kts 272°
2026-05-06 15:57 38.15463 -118.26535 38193 ft 490 kts 272°
2026-05-06 15:57 38.14932 -118.35099 38231 ft 489 kts 272°
2026-05-06 15:58 38.14392 -118.43722 38233 ft 490 kts 272°
2026-05-06 15:58 38.13845 -118.52349 38222 ft 490 kts 272°
2026-05-06 15:59 38.13292 -118.60971 38229 ft 490 kts 272°
2026-05-06 15:59 38.12739 -118.69537 38237 ft 490 kts 272°
2026-05-06 16:00 38.11768 -118.78154 38217 ft 499 kts 262°
2026-05-06 16:00 38.09916 -118.86655 38231 ft 500 kts 260°
2026-05-06 16:01 38.08022 -118.95143 38250 ft 500 kts 260°
2026-05-06 16:01 38.06170 -119.03587 38250 ft 500 kts 260°
2026-05-06 16:02 38.04319 -119.12093 38248 ft 500 kts 260°
2026-05-06 16:02 38.02468 -119.20604 38257 ft 501 kts 260°
2026-05-06 16:03 38.00605 -119.29128 38255 ft 503 kts 260°
2026-05-06 16:03 37.98728 -119.37677 38249 ft 503 kts 260°
2026-05-06 16:04 37.96856 -119.46166 38226 ft 504 kts 259°
2026-05-06 16:04 37.94963 -119.54706 38227 ft 503 kts 259°
2026-05-06 16:05 37.93069 -119.63233 38228 ft 503 kts 259°
2026-05-06 16:05 37.91168 -119.71762 38242 ft 504 kts 259°
2026-05-06 16:06 37.89268 -119.80250 38223 ft 505 kts 259°
2026-05-06 16:06 37.87345 -119.88802 38212 ft 505 kts 259°
2026-05-06 16:07 37.85419 -119.97346 38200 ft 505 kts 259°
2026-05-06 16:07 37.83489 -120.05879 38201 ft 504 kts 259°
2026-05-06 16:08 37.81562 -120.14354 38199 ft 505 kts 259°
2026-05-06 16:08 37.79616 -120.22880 38196 ft 505 kts 259°
2026-05-06 16:09 37.77669 -120.31389 38200 ft 503 kts 259°
2026-05-06 16:09 37.75721 -120.39881 38195 ft 503 kts 259°
2026-05-06 16:10 37.73777 -120.48313 38191 ft 503 kts 259°
2026-05-06 16:10 37.71815 -120.56791 38196 ft 503 kts 258°
2026-05-06 16:11 37.69846 -120.65272 38197 ft 503 kts 258°
2026-05-06 16:11 37.67869 -120.73755 38188 ft 504 kts 258°
2026-05-06 16:12 37.65897 -120.82188 38183 ft 504 kts 258°
2026-05-06 16:12 37.63909 -120.90661 38185 ft 504 kts 258°
2026-05-06 16:13 37.62032 -120.99155 38180 ft 500 kts 261°
2026-05-06 16:13 37.60479 -121.07699 38187 ft 499 kts 262°
2026-05-06 16:14 37.58969 -121.16186 38183 ft 499 kts 262°
2026-05-06 16:14 37.57423 -121.24720 38191 ft 499 kts 262°
2026-05-06 16:15 37.55856 -121.33247 38199 ft 500 kts 261°
2026-05-06 16:15 37.54277 -121.41773 38197 ft 500 kts 261°
2026-05-06 16:16 37.52694 -121.50293 38192 ft 499 kts 261°
2026-05-06 16:16 37.51118 -121.58744 38202 ft 499 kts 261°
2026-05-06 16:17 37.49529 -121.67233 38204 ft 498 kts 261°
2026-05-06 16:17 37.47934 -121.75716 38205 ft 498 kts 261°
2026-05-06 16:18 37.46334 -121.84188 38208 ft 497 kts 261°
2026-05-06 16:18 37.44738 -121.92595 38204 ft 497 kts 261°
2026-05-06 16:19 37.43129 -122.01049 38210 ft 497 kts 261°
2026-05-06 16:19 37.41513 -122.09508 38213 ft 497 kts 261°
2026-05-06 16:20 37.39888 -122.17962 38215 ft 497 kts 261°
2026-05-06 16:20 37.38270 -122.26362 38215 ft 498 kts 261°
2026-05-06 16:21 37.36634 -122.34813 38214 ft 497 kts 260°
2026-05-06 16:21 37.34996 -122.43243 38224 ft 496 kts 260°
2026-05-06 16:22 37.33350 -122.51668 38223 ft 497 kts 260°
2026-05-06 16:22 37.31699 -122.60096 38226 ft 497 kts 260°
2026-05-06 16:23 37.30040 -122.68470 38219 ft 498 kts 259°
2026-05-06 16:23 37.28194 -122.76855 38223 ft 498 kts 258°
2026-05-06 16:24 37.26286 -122.85222 38223 ft 498 kts 258°
2026-05-06 16:24 37.24394 -122.93587 38215 ft 498 kts 258°
2026-05-06 16:25 37.22528 -123.01887 38226 ft 498 kts 258°
2026-05-06 16:25 37.20648 -123.10241 38221 ft 498 kts 258°
2026-05-06 16:26 37.18761 -123.18593 38221 ft 497 kts 258°
2026-05-06 16:26 37.16869 -123.26929 38217 ft 497 kts 258°
2026-05-06 16:27 37.14988 -123.35193 38219 ft 496 kts 257°
2026-05-06 16:27 37.13087 -123.43506 38218 ft 496 kts 257°
2026-05-06 16:28 37.11182 -123.51811 38226 ft 496 kts 257°
2026-05-06 16:28 37.09269 -123.60119 38226 ft 497 kts 257°
2026-05-06 16:29 37.07364 -123.68379 38217 ft 497 kts 257°
2026-05-06 16:29 37.05440 -123.76685 38208 ft 496 kts 257°
2026-05-06 16:30 37.03836 -123.83577 38209 ft 496 kts 257°
2026-05-06 16:30 37.01576 -123.93267 38211 ft 497 kts 257°
2026-05-06 16:31 36.99700 -124.01518 38209 ft 495 kts 260°
2026-05-06 16:31 36.98245 -124.09918 38214 ft 494 kts 261°
2026-05-06 16:32 36.96843 -124.18330 38213 ft 494 kts 261°
2026-05-06 16:32 36.95421 -124.26733 38213 ft 494 kts 261°
2026-05-06 16:33 36.93983 -124.35079 38207 ft 494 kts 261°
2026-05-06 16:34 36.91793 -124.47670 38207 ft 494 kts 261°
2026-05-06 16:34 36.90327 -124.56055 38208 ft 494 kts 261°
2026-05-06 16:35 36.89283 -124.62004 38216 ft 494 kts 261°
2026-05-06 16:35 36.87968 -124.69484 38214 ft 493 kts 261°
2026-05-06 16:36 36.86489 -124.77856 38210 ft 493 kts 260°
2026-05-06 16:36 36.85006 -124.86207 38210 ft 493 kts 260°
2026-05-06 16:37 36.83517 -124.94560 38210 ft 493 kts 260°
2026-05-06 16:37 36.82027 -125.02906 38214 ft 493 kts 260°
2026-05-06 16:38 36.80537 -125.11188 38209 ft 492 kts 260°
2026-05-06 16:38 36.79030 -125.19523 38215 ft 492 kts 260°
2026-05-06 16:39 36.77519 -125.27851 38211 ft 492 kts 260°
2026-05-06 16:39 36.76002 -125.36189 38215 ft 493 kts 259°
2026-05-06 16:40 36.74493 -125.44458 38213 ft 492 kts 259°
2026-05-06 16:40 36.72965 -125.52780 38214 ft 492 kts 259°
2026-05-06 16:41 36.71430 -125.61103 38214 ft 493 kts 259°
2026-05-06 16:41 36.69889 -125.69423 38214 ft 493 kts 259°
2026-05-06 16:42 36.68344 -125.77741 38212 ft 493 kts 259°
2026-05-06 16:42 36.66802 -125.85994 38212 ft 492 kts 259°
2026-05-06 16:43 36.65246 -125.94295 38207 ft 492 kts 259°
2026-05-06 16:43 36.63686 -126.02595 38224 ft 492 kts 259°
2026-05-06 16:44 36.62118 -126.10888 38226 ft 492 kts 259°
2026-05-06 16:44 36.60556 -126.19117 38229 ft 492 kts 259°
2026-05-06 16:45 36.58978 -126.27403 38233 ft 492 kts 258°
2026-05-06 16:45 36.57394 -126.35683 38233 ft 492 kts 258°
2026-05-06 16:46 36.55806 -126.43954 38230 ft 491 kts 258°
2026-05-06 16:46 36.54225 -126.52154 38232 ft 491 kts 258°
2026-05-06 16:47 36.52629 -126.60395 38231 ft 490 kts 258°
2026-05-06 16:47 36.51032 -126.68620 38224 ft 490 kts 258°
2026-05-06 16:48 36.49427 -126.76853 38234 ft 489 kts 258°
2026-05-06 16:48 36.47830 -126.85009 38235 ft 489 kts 258°
2026-05-06 16:49 36.46203 -126.93203 38235 ft 489 kts 256°
2026-05-06 16:49 36.44004 -127.01191 38235 ft 489 kts 251°
2026-05-06 16:50 36.41648 -127.09119 38227 ft 489 kts 251°
2026-05-06 16:50 36.39318 -127.16999 38234 ft 489 kts 251°
2026-05-06 16:51 36.36992 -127.24931 38228 ft 489 kts 251°
2026-05-06 16:51 36.34674 -127.32852 38230 ft 488 kts 251°
2026-05-06 16:52 36.32355 -127.40758 38230 ft 487 kts 251°
2026-05-06 16:52 36.30034 -127.48643 38229 ft 487 kts 251°
2026-05-06 16:53 36.27721 -127.56473 38226 ft 487 kts 251°
2026-05-06 16:53 36.25389 -127.64342 38227 ft 486 kts 251°
2026-05-06 16:54 36.23054 -127.72206 38230 ft 486 kts 251°
2026-05-06 16:54 36.20712 -127.80069 38230 ft 487 kts 251°
2026-05-06 16:55 36.18381 -127.87878 38228 ft 487 kts 251°
2026-05-06 16:55 36.16027 -127.95738 38233 ft 487 kts 251°
2026-05-06 16:56 36.13668 -128.03588 38226 ft 487 kts 250°
2026-05-06 16:56 36.11321 -128.11385 38233 ft 487 kts 250°
2026-05-06 16:57 36.08955 -128.19215 38235 ft 487 kts 250°
2026-05-06 16:57 36.06574 -128.27080 38239 ft 487 kts 250°
2026-05-06 16:58 36.04196 -128.34917 38229 ft 487 kts 250°
2026-05-06 16:58 36.01817 -128.42740 38235 ft 486 kts 250°
2026-05-06 16:59 35.99445 -128.50502 38236 ft 486 kts 250°
2026-05-06 16:59 35.97055 -128.58298 38232 ft 486 kts 250°
2026-05-06 17:00 35.94661 -128.66091 38236 ft 485 kts 250°
2026-05-06 17:00 35.92267 -128.73874 38227 ft 485 kts 250°
2026-05-06 17:01 35.89889 -128.81577 38208 ft 484 kts 250°
2026-05-06 17:01 35.87491 -128.89327 38204 ft 483 kts 250°
2026-05-06 17:02 35.85095 -128.97056 38200 ft 482 kts 250°
2026-05-06 17:02 35.82695 -129.04769 38200 ft 482 kts 250°
2026-05-06 17:03 35.80290 -129.12472 38203 ft 481 kts 250°
2026-05-06 17:03 35.77904 -129.20100 38204 ft 480 kts 250°
2026-05-06 17:04 35.75505 -129.27749 38202 ft 479 kts 249°
2026-05-06 17:04 35.73106 -129.35385 38203 ft 478 kts 249°
2026-05-06 17:05 35.70702 -129.43006 38202 ft 477 kts 249°
2026-05-06 17:05 35.68312 -129.50565 38204 ft 477 kts 249°
2026-05-06 17:06 35.65903 -129.58166 38204 ft 477 kts 249°
2026-05-06 17:06 35.63493 -129.65757 38203 ft 476 kts 249°
2026-05-06 17:07 35.61079 -129.73339 38201 ft 476 kts 249°
2026-05-06 17:07 35.58675 -129.80861 38204 ft 476 kts 249°
2026-05-06 17:08 35.56254 -129.88426 38202 ft 476 kts 249°
2026-05-06 17:08 35.53829 -129.95986 38204 ft 476 kts 249°
2026-05-06 17:09 35.51397 -130.03541 38204 ft 476 kts 249°
2026-05-06 17:09 35.48963 -130.11085 38202 ft 475 kts 249°
2026-05-06 17:10 35.46547 -130.18555 38199 ft 474 kts 249°
2026-05-06 17:10 35.44113 -130.26067 38201 ft 474 kts 249°
2026-05-06 17:11 35.41674 -130.33563 38204 ft 473 kts 249°
2026-05-06 17:11 35.39236 -130.41044 38202 ft 473 kts 249°
2026-05-06 17:12 35.36807 -130.48483 38203 ft 473 kts 249°
2026-05-06 17:12 35.34360 -130.55956 38204 ft 473 kts 248°
2026-05-06 17:13 35.31909 -130.63424 38202 ft 473 kts 248°
2026-05-06 17:13 35.29458 -130.70872 38203 ft 472 kts 248°
2026-05-06 17:14 35.27014 -130.78276 38203 ft 472 kts 248°
2026-05-06 17:14 35.24549 -130.85725 38203 ft 472 kts 248°
2026-05-06 17:15 35.22085 -130.93161 38203 ft 472 kts 248°
2026-05-06 17:15 35.19615 -131.00597 38204 ft 472 kts 248°
2026-05-06 17:16 35.17157 -131.07974 38204 ft 471 kts 248°
2026-05-06 17:16 35.14680 -131.15385 38202 ft 471 kts 248°
2026-05-06 17:17 35.12205 -131.22781 38202 ft 470 kts 248°
2026-05-06 17:17 35.09728 -131.30160 38190 ft 470 kts 248°
2026-05-06 17:18 35.07249 -131.37536 38192 ft 469 kts 248°
2026-05-06 17:18 35.04780 -131.44854 38194 ft 469 kts 248°
2026-05-06 17:19 35.02291 -131.52212 38194 ft 469 kts 248°
2026-05-06 17:19 34.99799 -131.59565 38195 ft 469 kts 248°
2026-05-06 17:20 34.97303 -131.66915 38195 ft 469 kts 248°
2026-05-06 17:20 34.94821 -131.74208 38193 ft 469 kts 248°
2026-05-06 17:21 34.92319 -131.81542 38194 ft 469 kts 248°
2026-05-06 17:21 34.89814 -131.88868 38194 ft 468 kts 248°
2026-05-06 17:22 34.87302 -131.96189 38196 ft 468 kts 248°
2026-05-06 17:22 34.84804 -132.03454 38196 ft 468 kts 248°
2026-05-06 17:23 34.82287 -132.10757 38194 ft 467 kts 248°
2026-05-06 17:23 34.79774 -132.18044 38193 ft 467 kts 248°
2026-05-06 17:24 34.77256 -132.25323 38193 ft 467 kts 248°
2026-05-06 17:24 34.74751 -132.32542 38195 ft 466 kts 248°
2026-05-06 17:25 34.72224 -132.39805 38193 ft 467 kts 248°
2026-05-06 17:25 34.69694 -132.47070 38194 ft 467 kts 248°
2026-05-06 17:26 34.67157 -132.54331 38195 ft 467 kts 248°
2026-05-06 17:26 34.64632 -132.61541 38198 ft 467 kts 248°
2026-05-06 17:27 34.62088 -132.68787 38205 ft 467 kts 248°
2026-05-06 17:27 34.59541 -132.76033 38204 ft 467 kts 248°
2026-05-06 17:28 34.56989 -132.83270 38201 ft 466 kts 248°
2026-05-06 17:28 34.54451 -132.90448 38197 ft 466 kts 248°
2026-05-06 17:29 34.51896 -132.97670 38194 ft 466 kts 248°
2026-05-06 17:29 34.49334 -133.04884 38195 ft 466 kts 248°
2026-05-06 17:30 34.46769 -133.12095 38193 ft 466 kts 249°
2026-05-06 17:30 34.44221 -133.19236 38194 ft 465 kts 249°
2026-05-06 17:31 34.41653 -133.26422 38193 ft 464 kts 249°
2026-05-06 17:31 34.39085 -133.33590 38195 ft 464 kts 249°
2026-05-06 17:32 34.36515 -133.40756 38194 ft 464 kts 249°
2026-05-06 17:32 34.33960 -133.47858 38193 ft 463 kts 249°
2026-05-06 17:33 34.31388 -133.54989 38193 ft 463 kts 249°
2026-05-06 17:33 34.28813 -133.62118 38195 ft 463 kts 250°
2026-05-06 17:34 34.26230 -133.69251 38194 ft 462 kts 250°
2026-05-06 17:34 34.23647 -133.76366 38194 ft 462 kts 250°
2026-05-06 17:35 34.21077 -133.83432 38193 ft 462 kts 250°
2026-05-06 17:35 34.18483 -133.90543 38192 ft 462 kts 250°
2026-05-06 17:36 34.14591 -134.01195 38195 ft 462 kts 250°
2026-05-06 17:36 34.12429 -134.07093 38194 ft 462 kts 250°
2026-05-06 17:37 34.09403 -134.15335 38194 ft 462 kts 250°
2026-05-06 17:37 34.06790 -134.22434 38200 ft 463 kts 250°
2026-05-06 17:38 34.04177 -134.29516 38202 ft 462 kts 250°
2026-05-06 17:38 34.02004 -134.35396 38203 ft 462 kts 250°
2026-05-06 17:39 33.98960 -134.43612 38196 ft 462 kts 250°
2026-05-06 17:39 33.96337 -134.50677 38193 ft 462 kts 250°
2026-05-06 17:40 33.94156 -134.56547 38195 ft 462 kts 250°
2026-05-06 17:40 33.91525 -134.63604 38192 ft 462 kts 249°
2026-05-06 17:41 33.88469 -134.71794 38195 ft 461 kts 249°
2026-05-06 17:41 33.86266 -134.77683 38193 ft 460 kts 249°
2026-05-06 17:42 33.83652 -134.84656 38195 ft 460 kts 249°
2026-05-06 17:42 33.81019 -134.91670 38191 ft 460 kts 249°
2026-05-06 17:43 33.78379 -134.98675 38183 ft 460 kts 249°
2026-05-06 17:43 33.75745 -135.05657 38183 ft 459 kts 249°
2026-05-06 17:44 33.73120 -135.12604 38186 ft 459 kts 249°
2026-05-06 17:44 33.70479 -135.19576 38181 ft 458 kts 249°
2026-05-06 17:45 33.67838 -135.26532 38183 ft 457 kts 249°
2026-05-06 17:45 33.65214 -135.33430 38185 ft 457 kts 249°
2026-05-06 17:46 33.62570 -135.40367 38174 ft 457 kts 249°
2026-05-06 17:46 33.59925 -135.47293 38177 ft 457 kts 249°
2026-05-06 17:47 33.57275 -135.54216 38174 ft 457 kts 249°
2026-05-06 17:47 33.54621 -135.61136 38174 ft 457 kts 249°
2026-05-06 17:48 33.51979 -135.68009 38179 ft 457 kts 249°
2026-05-06 17:48 33.49317 -135.74926 38172 ft 457 kts 249°
2026-05-06 17:49 33.46651 -135.81828 38170 ft 457 kts 249°
2026-05-06 17:49 33.43982 -135.88730 38163 ft 457 kts 249°
2026-05-06 17:50 33.41327 -135.95581 38167 ft 457 kts 249°
2026-05-06 17:50 33.38650 -136.02472 38167 ft 457 kts 249°
2026-05-06 17:51 33.35970 -136.09361 38163 ft 456 kts 249°
2026-05-06 17:51 33.33291 -136.16237 38167 ft 456 kts 248°
2026-05-06 17:52 33.30621 -136.23067 38162 ft 456 kts 248°
2026-05-06 17:52 33.27929 -136.29940 38166 ft 457 kts 248°
2026-05-06 17:53 33.25233 -136.36812 38165 ft 457 kts 248°
2026-05-06 17:53 33.22534 -136.43679 38162 ft 456 kts 248°
2026-05-06 17:54 33.19849 -136.50495 38168 ft 457 kts 248°
2026-05-06 17:54 33.17144 -136.57352 38167 ft 457 kts 248°
2026-05-06 17:55 33.14433 -136.64210 38169 ft 457 kts 248°
2026-05-06 17:55 33.11721 -136.71062 38168 ft 457 kts 248°
2026-05-06 17:56 33.09019 -136.77861 38159 ft 457 kts 248°
2026-05-06 17:56 33.06295 -136.84703 38158 ft 457 kts 248°
2026-05-06 17:57 33.03566 -136.91552 38159 ft 458 kts 248°
2026-05-06 17:57 33.00831 -136.98398 38160 ft 457 kts 247°
2026-05-06 17:58 32.98115 -137.05184 38161 ft 457 kts 247°
2026-05-06 17:58 32.95374 -137.12022 38160 ft 457 kts 247°
2026-05-06 17:59 32.92630 -137.18850 38158 ft 457 kts 247°
2026-05-06 17:59 32.89884 -137.25673 38155 ft 457 kts 247°
2026-05-06 18:00 32.87151 -137.32452 38156 ft 458 kts 247°
2026-05-06 18:00 32.84393 -137.39276 38154 ft 458 kts 247°
2026-05-06 18:01 32.81629 -137.46099 38161 ft 458 kts 247°
2026-05-06 18:01 32.78861 -137.52919 38149 ft 458 kts 246°
2026-05-06 18:02 32.76110 -137.59690 38157 ft 458 kts 246°
2026-05-06 18:02 32.73331 -137.66513 38158 ft 459 kts 246°
2026-05-06 18:03 32.70548 -137.73333 38155 ft 459 kts 246°
2026-05-06 18:03 32.67760 -137.80149 38157 ft 459 kts 246°
2026-05-06 18:04 32.64970 -137.86959 38156 ft 459 kts 246°
2026-05-06 18:04 32.62196 -137.93718 38152 ft 459 kts 246°
2026-05-06 18:05 32.59400 -138.00523 38153 ft 459 kts 246°
2026-05-06 18:05 32.56593 -138.07331 38155 ft 459 kts 246°
2026-05-06 18:06 32.53784 -138.14132 38158 ft 459 kts 246°
2026-05-06 18:06 32.50993 -138.20876 38154 ft 459 kts 246°
2026-05-06 18:07 32.48182 -138.27654 38158 ft 458 kts 246°
2026-05-06 18:07 32.45374 -138.34419 38153 ft 458 kts 246°
2026-05-06 18:08 32.42559 -138.41189 38151 ft 458 kts 246°
2026-05-06 18:08 32.39755 -138.47914 38149 ft 458 kts 245°
2026-05-06 18:09 32.36934 -138.54669 38152 ft 458 kts 245°
2026-05-06 18:09 32.34107 -138.61420 38148 ft 458 kts 245°
2026-05-06 18:10 32.31283 -138.68162 38141 ft 457 kts 245°
2026-05-06 18:10 32.28458 -138.74890 38147 ft 457 kts 245°
2026-05-06 18:11 32.25647 -138.81569 38144 ft 456 kts 245°
2026-05-06 18:11 32.22820 -138.88270 38153 ft 455 kts 245°
2026-05-06 18:12 32.20010 -138.94922 38152 ft 451 kts 245°
2026-05-06 18:12 32.17219 -139.01516 38142 ft 447 kts 245°
2026-05-06 18:13 32.14463 -139.08017 38154 ft 445 kts 245°
2026-05-06 18:13 32.11689 -139.14548 38163 ft 445 kts 245°
2026-05-06 18:14 32.08910 -139.21082 38154 ft 446 kts 245°
2026-05-06 18:14 32.06122 -139.27626 38158 ft 447 kts 244°
2026-05-06 18:15 32.03345 -139.34130 38162 ft 447 kts 244°
2026-05-06 18:15 32.00544 -139.40675 38153 ft 447 kts 244°
2026-05-06 18:16 31.97742 -139.47212 38155 ft 447 kts 244°
2026-05-06 18:16 31.94937 -139.53747 38159 ft 447 kts 244°
2026-05-06 18:17 31.92150 -139.60228 38156 ft 446 kts 244°
2026-05-06 18:17 31.89343 -139.66741 38156 ft 446 kts 244°
2026-05-06 18:18 31.86534 -139.73246 38144 ft 446 kts 244°
2026-05-06 18:18 31.83724 -139.79747 38131 ft 446 kts 244°
2026-05-06 18:19 31.80930 -139.86194 38129 ft 445 kts 244°
2026-05-06 18:19 31.78118 -139.92674 38128 ft 445 kts 244°
2026-05-06 18:20 31.75303 -139.99153 38129 ft 445 kts 244°
2026-05-06 18:20 31.72484 -140.05623 38129 ft 445 kts 244°
2026-05-06 18:21 31.69680 -140.12043 38132 ft 445 kts 244°
2026-05-06 18:21 31.66857 -140.18507 38127 ft 445 kts 244°
2026-05-06 18:22 31.64030 -140.24967 38130 ft 445 kts 244°
2026-05-06 18:22 31.61198 -140.31423 38129 ft 445 kts 244°
2026-05-06 18:23 31.58381 -140.37833 38130 ft 445 kts 244°
2026-05-06 18:23 31.55541 -140.44288 38128 ft 445 kts 244°
2026-05-06 18:24 31.52699 -140.50738 38130 ft 445 kts 244°
2026-05-06 18:24 31.49850 -140.57183 38130 ft 445 kts 244°
2026-05-06 18:25 31.47018 -140.63583 38130 ft 446 kts 244°
2026-05-06 18:25 31.44162 -140.70030 38129 ft 446 kts 244°
2026-05-06 18:26 31.41301 -140.76475 38129 ft 446 kts 244°
2026-05-06 18:26 31.38437 -140.82912 38129 ft 446 kts 244°